Overview Statistics Trail Chart Weather Telemetry Raw packets
 

This is the latest recevied weather packets stored in our database for station/object K7SKM. If no packets are shown the sender has not sent any weather packets the latest 10 day(s).

<< 19 20 21 22 23 24 25 >>
Time Temp. Humidity Pressure Rain* Wind** Luminosity Snow
1788545612 19.44° C 65% 1018.4 hPa 0 mm - 304 W/m² -
1788545308 18.89° C 70% 1018.4 hPa 0 mm - 294 W/m² -
1788545003 18.33° C 68% 1018.5 hPa 0 mm - 284 W/m² -
1788544702 17.78° C 72% 1018.4 hPa 0 mm - 274 W/m² -
1788544401 16.67° C 80% 1018.4 hPa 0 mm - 271 W/m² -
1788544095 16.11° C 84% 1018.3 hPa 0 mm - 260 W/m² -
1788543791 15.56° C 88% 1018.4 hPa 0 mm - 254 W/m² -
1788543487 15° C 93% 1018.3 hPa 0 mm - 247 W/m² -
1788543182 14.44° C 95% 1018.4 hPa 0 mm - 243 W/m² -
1788542878 14.44° C 96% 1018.4 hPa 0 mm - 244 W/m² -
1788542577 15° C 97% 1018.2 hPa 0 mm - 223 W/m² -
1788542272 14.44° C 97% 1018.3 hPa 0 mm - 189 W/m² -
1788541968 14.44° C 98% 1018.4 hPa 0 mm - 161 W/m² -
1788541664 13.89° C 98% 1018.4 hPa 0 mm - 147 W/m² -
1788541360 13.89° C 97% 1018.3 hPa 0 mm - 136 W/m² -
1788541059 14.44° C 97% 1018.2 hPa 0 mm - 153 W/m² -
1788540753 14.44° C 98% 1018.2 hPa 0 mm - 180 W/m² -
1788540453 13.89° C 98% 1018.3 hPa 0 mm - 202 W/m² -
1788540148 14.44° C 99% 1018.3 hPa 0 mm - 186 W/m² -
1788539844 13.89° C 99% 1018.5 hPa 0 mm - 172 W/m² -
1788539539 13.33° C 98% 1018.4 hPa 0 mm - 150 W/m² -
1788539238 13.33° C 98% 1018.4 hPa 0 mm - 114 W/m² -
1788538933 12.78° C 98% 1018.3 hPa 0 mm - 104 W/m² -
1788538629 13.33° C 98% 1018.3 hPa 0 mm - 97 W/m² -
1788538324 12.78° C 99% 1018.3 hPa 0 mm - 88 W/m² -

* Rain latest hour (hover to see other rain measurements)
** Current wind speed in m/s (hover to see current wind gust speed)